Date,TemperatureHighF,TemperatureAvgF,TemperatureLowF,DewpointHighF,DewpointAvgF,DewpointLowF,HumidityHigh,HumidityAvg,HumidityLow,PressureMaxIn,PressureMinIn,WindSpeedMaxMPH,WindSpeedAvgMPH,GustSpeedMaxMPH,PrecipitationSumIn
2013-1-1,50,47,44,48,41,30,96,80,52,30.14,29.96,9,2,13,0.20
2013-1-2,49,43,39,48,42,38,97,95,88,30.23,29.95,2,0,5,0.31
2013-1-3,44,39,33,38,37,32,96,90,75,30.29,30.19,2,0,6,0.00
2013-1-4,50,39,30,33,29,24,96,69,40,30.35,30.23,9,3,13,0.01
2013-1-5,50,40,29,32,27,23,84,62,41,30.43,30.30,4,1,6,0.00
2013-1-6,49,43,38,40,37,31,94,80,65,30.30,30.10,4,1,7,0.01
2013-1-7,52,41,33,36,33,30,93,76,50,30.48,30.21,4,0,10,0.01
2013-1-8,55,42,31,42,36,29,95,81,55,30.51,30.41,2,0,6,0.00
2013-1-9,68,54,37,52,46,35,96,78,54,30.48,30.38,7,1,11,0.00
2013-1-10,64,53,45,50,45,37,93,75,54,30.57,30.44,5,0,8,0.00
2013-1-11,53,48,43,52,44,34,97,87,63,30.48,30.18,4,0,7,0.20
2013-1-12,70,58,52,64,56,51,98,95,79,30.20,30.13,5,1,6,0.00
2013-1-13,75,63,54,64,59,54,100,87,67,30.18,30.08,8,2,12,0.01
2013-1-14,69,63,58,64,60,56,96,90,81,30.19,30.10,6,1,9,0.00
2013-1-15,62,46,45,61,46,44,97,96,92,30.27,30.10,4,1,9,0.03
2013-1-16,50,47,45,50,46,44,98,97,97,30.10,30.01,4,0,8,0.10
2013-1-17,52,46,34,51,46,32,98,97,94,30.15,29.93,6,1,10,0.48
2013-1-18,46,37,31,34,31,27,97,81,48,30.58,30.17,8,2,14,0.88
2013-1-19,54,40,29,36,30,26,93,70,41,30.55,30.19,5,1,8,0.00
2013-1-20,63,50,40,41,36,32,81,61,35,30.19,30.00,12,3,18,0.00
2013-1-21,59,48,33,35,31,20,88,55,33,30.11,29.89,10,3,16,0.00
2013-1-22,44,34,25,21,10,2,48,37,23,30.33,29.98,10,3,16,0.00
2013-1-23,40,30,20,19,12,5,76,48,32,30.43,30.11,9,2,12,0.00
2013-1-24,36,31,21,27,18,10,76,58,41,30.57,30.00,11,2,17,0.00
2013-1-25,28,24,19,27,18,8,94,76,47,30.57,30.16,5,1,7,0.02
2013-1-26,36,31,26,34,29,25,96,93,86,30.44,30.14,5,0,7,0.24
2013-1-27,40,31,25,32,27,24,96,86,66,30.65,30.44,5,0,7,0.04
2013-1-28,53,41,30,49,36,27,92,84,68,30.55,30.26,10,2,12,0.01
2013-1-29,73,60,49,59,53,47,93,80,57,30.26,30.11,12,4,15,0.00
2013-1-30,72,67,59,65,62,56,96,86,76,30.11,29.41,17,9,27,0.02
2013-1-31,70,48,38,65,34,22,92,59,34,30.04,29.40,19,10,30,0.53
2013-2-1,42,35,26,30,17,7,69,48,28,30.43,29.92,17,6,23,0.00
2013-2-2,43,30,18,20,12,9,81,50,30,30.45,30.15,9,2,14,0.00
2013-2-3,48,43,32,31,29,25,78,59,45,30.02,29.89,10,4,18,0.00
2013-2-4,48,39,27,29,25,21,88,60,37,30.18,30.01,8,2,11,0.00
2013-2-5,61,47,39,37,34,29,79,62,38,30.05,29.91,8,2,12,0.00
2013-2-6,62,47,35,39,32,26,93,61,26,30.33,30.00,7,2,14,0.00
2013-2-7,49,42,36,43,38,34,95,86,71,30.37,30.02,3,1,7,0.30
2013-2-8,55,46,41,47,43,34,96,87,60,30.02,29.82,13,5,15,0.82
2013-2-9,52,43,31,30,25,21,86,51,30,30.39,30.24,8,3,15,0.00
2013-2-10,53,39,28,38,25,21,85,60,32,30.53,30.26,6,1,11,0.01
2013-2-11,63,56,44,60,54,38,96,91,80,30.26,29.95,11,5,17,0.03
2013-2-12,60,54,47,56,39,28,89,59,31,30.11,29.93,9,3,18,0.00
2013-2-13,50,47,44,48,44,36,98,90,59,29.98,29.65,10,2,14,0.26
2013-2-14,51,43,33,38,35,31,95,75,55,30.11,29.85,6,1,9,0.00
2013-2-15,61,46,31,42,35,29,94,70,35,30.13,29.97,7,1,10,0.00
2013-2-16,47,38,31,38,34,29,95,87,64,30.00,29.85,5,1,11,0.28
2013-2-17,36,31,26,29,19,12,95,63,37,30.24,29.93,14,7,24,0.01
2013-2-18,51,43,24,27,22,17,87,45,30,30.47,30.31,7,2,10,0.06
2013-2-19,54,44,34,51,40,27,94,83,64,30.31,29.89,15,4,20,0.07
2013-2-20,52,42,34,40,23,16,94,49,24,30.18,29.99,11,4,16,0.00
2013-2-21,54,41,28,28,22,18,80,48,27,30.31,30.15,7,1,10,0.00
2013-2-22,41,36,32,36,32,23,96,85,49,30.39,30.18,2,0,6,0.38
2013-2-23,44,41,37,43,40,36,100,96,96,30.17,29.85,5,1,8,0.75
2013-2-24,61,50,44,47,41,30,97,74,38,30.07,29.82,8,2,14,0.09
2013-2-25,44,38,33,31,27,24,80,65,51,30.26,30.07,3,1,7,0.00
2013-2-26,58,46,35,57,43,28,97,89,72,30.18,29.60,9,3,14,0.81
2013-2-27,59,50,44,47,42,39,95,75,49,29.81,29.64,12,5,17,0.00
2013-2-28,48,43,35,40,34,29,93,73,51,29.88,29.72,10,2,14,0.00
2013-3-1,49,40,31,35,31,28,89,70,49,29.94,29.86,8,2,14,0.00
2013-3-2,47,39,30,31,28,23,88,65,47,29.94,29.84,5,1,12,0.00
2013-3-3,46,37,30,27,23,18,77,58,41,30.01,29.87,10,4,13,0.00
2013-3-4,50,38,27,24,19,16,69,48,28,30.14,30.00,10,4,19,0.00
2013-3-5,52,43,36,44,36,20,95,78,42,30.12,29.61,9,1,11,0.28
2013-3-6,46,41,37,45,36,30,100,80,63,30.04,29.51,19,9,30,0.07
2013-3-7,49,42,34,35,32,28,85,67,52,30.26,30.03,10,4,15,0.00
2013-3-8,55,44,32,31,28,26,79,57,35,30.31,30.17,11,4,20,0.00
2013-3-9,62,47,37,35,31,27,75,55,30,30.36,30.27,6,1,11,0.00
2013-3-10,66,51,35,36,29,19,85,50,17,30.36,30.25,4,1,10,0.00
2013-3-11,71,56,41,53,46,30,94,70,46,30.28,29.99,10,4,15,0.00
2013-3-12,70,62,51,62,55,37,95,80,59,29.99,29.77,13,6,23,0.38
2013-3-13,57,47,36,37,30,21,90,53,31,30.15,29.96,13,5,22,0.00
2013-3-14,54,40,30,27,22,18,71,49,26,30.26,30.13,11,4,19,0.00
2013-3-15,63,46,30,37,28,21,79,51,34,30.22,29.93,12,4,19,0.00
2013-3-16,78,62,50,52,45,36,72,55,36,29.93,29.67,13,5,22,0.00
2013-3-17,64,53,41,53,47,38,95,79,65,30.22,29.85,5,1,12,0.00
2013-3-18,43,41,38,42,40,37,100,96,92,30.23,29.92,9,1,9,0.15
2013-3-19,67,52,41,50,36,17,97,63,22,30.04,29.84,11,5,16,0.03
2013-3-20,55,46,37,27,20,13,62,36,24,30.15,29.83,7,2,12,0.00
2013-3-21,46,40,32,32,22,12,70,50,32,30.00,29.75,13,4,21,0.00
2013-3-22,52,38,24,24,17,14,72,46,23,30.11,30.00,9,3,16,0.00
2013-3-23,56,46,36,34,28,22,78,51,32,30.09,29.94,3,0,6,0.00
2013-3-24,41,39,36,39,35,30,95,88,73,29.97,29.60,5,1,13,0.70
2013-3-25,48,41,36,39,32,26,96,75,45,29.83,29.57,16,5,22,0.01
2013-3-26,49,43,35,33,29,26,76,60,48,30.12,29.83,10,4,14,0.00
2013-3-27,53,42,30,31,27,23,88,58,35,30.25,30.13,12,5,20,0.00
2013-3-28,56,44,32,30,27,25,82,54,30,30.32,30.17,10,3,17,0.00
2013-3-29,59,46,33,33,28,26,84,53,29,30.36,30.21,8,2,13,0.00
2013-3-30,66,52,38,45,35,28,84,55,30,30.28,30.12,6,1,7,0.00
2013-3-31,67,57,49,58,51,43,96,82,69,30.14,29.83,10,3,14,0.44
2013-4-1,72,61,54,55,48,39,97,68,34,29.99,29.82,12,2,21,0.05
2013-4-2,60,50,39,40,30,24,73,48,26,30.18,29.99,10,2,14,0.00
2013-4-3,59,49,40,32,26,20,65,42,25,30.33,30.17,7,1,12,0.00
2013-4-4,50,43,40,41,34,26,95,71,45,30.40,29.95,5,1,11,0.43
2013-4-5,63,49,40,50,44,38,100,84,57,30.04,29.88,5,1,9,0.40
2013-4-6,64,52,42,45,36,27,95,58,30,30.32,30.04,6,1,7,0.00
2013-4-7,71,55,36,49,40,33,94,62,38,30.32,30.15,9,2,12,0.00
2013-4-8,78,66,54,60,54,49,94,69,44,30.20,30.07,10,4,14,0.00
2013-4-9,84,71,58,62,58,56,95,66,40,30.20,30.08,8,3,12,0.00
2013-4-10,87,75,62,64,61,58,89,63,41,30.12,29.96,10,5,16,0.00
2013-4-11,70,65,62,62,59,58,93,83,74,30.00,29.97,6,3,8,0.00
2013-4-12,80,73,66,71,65,52,95,77,58,29.78,29.63,11,5,17,0.27
2013-4-13,74,64,55,52,44,39,73,49,31,30.03,29.77,7,2,14,0.00
2013-4-14,80,66,48,53,47,39,96,58,26,30.13,30.03,5,1,8,0.00
2013-4-15,73,66,60,60,57,52,89,74,60,30.24,30.05,5,1,9,0.00
2013-4-16,76,64,56,63,59,55,97,84,55,30.34,30.23,2,0,5,0.00
2013-4-17,81,70,58,66,62,57,96,78,57,30.26,30.13,6,2,10,0.00
2013-4-18,79,69,59,65,61,58,95,76,56,30.23,30.07,6,2,11,0.00
2013-4-19,83,72,66,70,66,62,95,84,61,30.08,29.75,13,6,21,0.01
2013-4-20,66,56,47,64,44,35,95,68,38,30.30,29.83,14,3,18,0.25
2013-4-21,62,52,42,45,42,38,92,70,47,30.52,30.30,5,1,11,0.00
2013-4-22,61,49,37,47,41,34,91,76,53,30.52,30.30,6,2,12,0.02
2013-4-23,66,55,48,53,48,45,91,79,58,30.30,30.16,5,1,13,0.00
2013-4-24,78,63,49,58,54,47,96,74,47,30.19,30.00,11,4,18,0.00
2013-4-25,70,61,52,58,51,42,91,70,48,30.31,30.04,6,1,12,0.00
2013-4-26,72,59,49,54,45,37,97,65,28,30.45,30.31,5,1,11,0.00
2013-4-27,72,62,51,52,46,41,85,58,39,30.42,30.29,4,0,7,0.00
2013-4-28,64,59,55,56,51,44,95,77,58,30.30,30.14,3,0,6,0.36
2013-4-29,72,62,55,66,60,53,97,93,75,30.14,30.00,3,0,7,1.17
2013-4-30,66,62,58,62,59,56,97,92,81,30.19,30.03,3,0,6,0.01
2013-5-1,61,59,58,59,57,56,96,93,91,30.35,30.18,4,1,10,0.02
2013-5-2,63,59,54,58,56,51,95,90,84,30.37,30.28,3,1,7,0.00
2013-5-3,71,57,48,57,50,45,96,78,50,30.30,30.20,4,1,10,0.00
2013-5-4,64,56,49,55,50,46,92,82,69,30.25,30.12,4,2,9,0.00
2013-5-5,60,55,49,57,52,47,94,89,85,30.14,30.03,4,2,10,0.00
2013-5-6,68,61,56,66,59,55,97,95,88,30.04,29.86,8,1,11,2.14
2013-5-7,71,61,54,61,55,50,97,83,51,29.98,29.88,7,2,13,0.01
2013-5-8,72,61,52,62,56,50,96,85,63,30.04,29.95,8,1,12,0.20
2013-5-9,80,67,55,63,59,54,97,78,47,30.09,30.00,8,2,11,0.01
2013-5-10,85,72,58,64,61,56,95,70,46,30.09,29.97,8,2,13,0.00
2013-5-11,83,73,68,68,64,60,95,76,51,29.99,29.81,12,4,16,0.05
2013-5-12,72,66,55,65,53,40,93,66,36,30.05,29.81,10,3,16,0.01
2013-5-13,65,57,48,44,39,33,70,52,33,30.21,30.05,8,2,14,0.00
2013-5-14,70,57,42,47,41,34,92,59,30,30.29,30.11,7,1,10,0.00
2013-5-15,88,70,54,64,56,45,81,62,41,30.12,29.91,9,4,13,0.00
2013-5-16,86,77,66,66,62,58,86,61,42,29.99,29.91,9,3,12,0.00
2013-5-17,87,75,63,66,63,60,93,68,42,30.11,29.99,3,0,8,0.00
2013-5-18,77,71,64,70,66,62,95,86,77,30.17,30.09,2,0,6,0.07
2013-5-19,80,70,66,71,67,64,97,91,66,30.18,30.09,11,1,14,0.43
2013-5-20,76,70,67,72,68,66,97,95,84,30.15,30.06,9,1,11,0.98
2013-5-21,81,73,68,74,70,67,97,89,77,30.08,29.97,7,2,10,0.00
2013-5-22,84,74,69,72,69,67,96,84,60,30.06,29.94,8,3,12,0.00
2013-5-23,81,72,68,70,68,67,96,90,64,29.99,29.85,6,2,11,0.70
2013-5-24,69,65,54,68,55,40,97,72,42,30.20,29.82,13,5,22,0.00
2013-5-25,72,58,45,53,42,36,84,59,30,30.30,30.16,8,2,14,0.00
2013-5-26,74,61,50,54,46,40,86,59,36,30.31,30.20,7,1,9,0.00
2013-5-27,80,66,50,57,52,48,94,65,38,30.31,30.19,5,1,11,0.00
2013-5-28,84,72,60,69,62,55,90,72,56,30.29,30.17,8,2,12,0.00
2013-5-29,85,74,63,67,64,61,94,73,52,30.27,30.18,8,3,14,0.00
2013-5-30,87,76,64,69,65,61,96,72,46,30.30,30.20,6,2,11,0.00
2013-5-31,87,78,66,71,67,64,96,73,47,30.25,30.12,7,2,12,0.00
2013-6-1,88,78,68,71,68,66,95,74,51,30.17,30.05,7,3,12,0.00
2013-6-2,79,72,68,70,67,66,93,85,72,30.09,30.01,8,5,14,0.00
2013-6-3,81,75,68,75,71,66,95,90,78,29.96,29.86,6,2,9,0.05
2013-6-4,80,72,66,67,64,60,96,79,54,30.13,29.95,3,0,6,0.01
2013-6-5,82,71,60,65,61,57,96,73,47,30.18,30.05,3,0,10,0.00
2013-6-6,76,70,64,73,67,59,96,90,75,30.09,29.86,6,1,9,0.47
2013-6-7,78,72,69,76,70,68,97,96,88,29.88,29.43,13,2,21,3.97
2013-6-8,83,74,68,73,70,66,97,88,67,30.12,29.84,7,1,10,0.09
2013-6-9,87,77,68,75,71,67,97,83,60,30.19,30.08,7,1,11,0.17
2013-6-10,81,75,71,77,73,70,96,92,82,30.13,29.93,8,3,14,0.62
2013-6-11,84,78,70,71,68,66,93,73,56,29.97,29.91,8,4,16,0.00
2013-6-12,88,78,67,77,71,65,94,79,61,30.00,29.89,7,2,13,0.00
2013-6-13,94,83,74,79,74,63,93,77,48,29.89,29.60,22,3,29,0.00
2013-6-14,65,64,62,61,60,58,90,88,84,30.03,30.02,0,0,6,0.00
2013-6-15,84,71,60,66,62,58,93,74,46,30.15,30.03,7,1,10,0.00
2013-6-16,86,76,65,70,65,57,81,69,56,30.15,30.02,10,3,13,0.00
2013-6-17,86,77,71,73,69,65,89,77,64,30.06,29.95,6,2,11,0.00
2013-6-18,83,75,70,74,71,68,96,88,71,29.99,29.75,10,2,12,0.48
2013-6-19,79,72,67,70,67,65,96,86,71,30.15,29.88,2,0,7,0.00
2013-6-20,81,71,63,67,63,56,96,77,55,30.27,30.15,2,0,6,0.00
2013-6-21,83,70,57,69,61,54,95,75,48,30.28,30.21,2,0,6,0.00
2013-6-22,80,72,68,73,70,67,96,92,77,30.24,30.13,3,0,8,0.19
2013-6-23,84,76,69,77,72,68,97,89,72,30.24,30.15,3,0,6,0.03
2013-6-24,85,77,72,77,73,71,96,89,75,30.23,30.11,6,1,9,0.16
2013-6-25,86,76,71,77,72,69,95,89,71,30.15,30.03,7,2,13,0.06
2013-6-26,90,76,69,77,72,67,97,86,60,30.06,29.91,11,2,15,0.48
2013-6-27,88,76,68,77,72,67,96,88,67,29.93,29.74,7,3,12,0.00
2013-6-28,90,78,71,77,73,68,96,85,58,29.78,29.60,9,2,12,0.74
2013-6-29,85,76,69,76,72,68,97,89,71,29.76,29.63,6,1,11,0.91
2013-6-30,85,76,70,78,73,69,96,90,74,29.91,29.75,6,1,11,0.44
2013-7-1,81,75,70,76,73,69,97,92,77,30.03,29.87,5,1,10,0.90
2013-7-2,80,74,71,75,72,69,97,95,84,30.22,30.02,8,1,13,1.07
2013-7-3,84,78,73,78,74,72,97,90,77,30.27,30.18,5,1,11,0.01
2013-7-4,89,79,73,77,73,70,96,84,60,30.31,30.21,5,1,9,0.01
2013-7-5,89,80,72,77,74,71,97,83,61,30.31,30.18,3,1,7,0.00
2013-7-6,87,79,72,77,73,71,97,84,64,30.28,30.15,3,1,8,0.00
2013-7-7,89,79,70,77,73,69,96,82,60,30.22,30.08,6,2,10,0.00
2013-7-8,85,78,72,77,74,70,97,88,75,30.19,30.12,12,1,13,4.28
2013-7-9,87,76,72,79,74,71,98,93,76,30.19,30.10,9,1,14,0.03
2013-7-10,87,79,74,78,75,72,97,87,73,30.13,29.98,7,2,12,0.00
2013-7-11,83,76,73,77,73,72,97,92,77,30.01,29.91,4,1,11,0.49
2013-7-12,76,73,71,73,71,70,97,94,85,30.05,29.89,2,0,5,0.26
2013-7-13,80,74,71,77,72,70,97,94,85,30.22,30.04,3,0,6,1.49
2013-7-14,87,78,70,77,73,69,98,87,69,30.33,30.22,2,0,5,0.01
2013-7-15,89,78,70,77,73,69,97,84,58,30.35,30.27,1,0,5,0.00
2013-7-16,94,81,71,81,75,70,97,83,55,30.29,30.19,2,0,6,0.03
2013-7-17,92,83,74,79,76,73,97,80,55,30.24,30.12,1,0,6,0.00
2013-7-18,92,83,74,81,76,73,97,82,59,30.17,30.05,2,0,7,0.03
2013-7-19,90,82,75,79,76,73,96,83,65,30.12,30.00,7,2,12,0.00
2013-7-20,89,80,75,78,74,73,93,83,67,30.06,29.93,7,2,11,0.00
2013-7-21,87,78,74,77,74,71,95,88,68,30.02,29.92,5,1,12,0.06
2013-7-22,88,79,72,77,74,71,97,87,69,29.98,29.84,6,1,10,0.00
2013-7-23,89,81,75,76,74,72,93,81,61,29.87,29.74,5,2,10,0.00
2013-7-24,93,80,72,77,72,67,95,80,48,29.87,29.74,10,0,13,0.13
2013-7-25,80,73,68,72,69,66,96,88,72,30.05,29.84,3,0,8,0.05
2013-7-26,84,73,62,71,65,61,97,80,55,30.14,30.04,1,0,5,0.00
2013-7-27,86,75,66,75,70,65,97,85,60,30.09,29.97,10,0,11,0.10
2013-7-28,85,77,70,78,73,69,97,88,72,30.03,29.94,3,0,8,0.34
2013-7-29,86,78,71,74,71,65,95,81,57,30.17,30.01,2,0,6,0.00
2013-7-30,86,75,65,73,68,62,93,79,54,30.24,30.16,1,0,6,0.00
2013-7-31,82,76,72,75,72,70,96,88,75,30.17,30.03,2,0,7,0.00
2013-8-1,76,73,71,75,71,69,96,95,90,30.04,29.89,5,0,5,1.11
2013-8-2,89,78,69,76,72,68,97,82,59,30.04,29.92,3,0,5,0.03
2013-8-3,88,78,72,79,74,71,97,89,66,30.04,29.92,7,1,9,0.00
2013-8-4,84,75,66,73,68,63,98,82,54,30.05,29.90,3,0,8,0.01
2013-8-5,83,73,62,70,64,59,95,76,50,30.12,30.03,2,0,7,0.00
2013-8-6,82,74,67,72,68,64,95,81,66,30.09,30.02,5,1,9,0.07
2013-8-7,86,76,67,74,70,65,96,81,59,30.13,30.05,5,1,9,0.00
2013-8-8,88,79,70,75,72,68,97,81,59,30.09,30.02,3,0,8,0.00
2013-8-9,91,82,74,78,75,73,97,81,62,30.07,29.99,8,2,15,0.00
2013-8-10,93,80,74,80,76,71,97,86,60,30.12,30.01,15,1,29,0.81
2013-8-11,92,78,73,79,75,72,98,90,60,30.13,30.02,1,0,4,0.16
2013-8-12,92,81,73,77,74,72,98,82,53,30.06,29.95,3,0,8,0.00
2013-8-13,87,78,72,79,74,70,98,89,70,30.00,29.79,11,1,11,1.15
2013-8-14,74,71,61,73,66,60,97,85,68,30.12,29.83,3,0,11,0.00
2013-8-15,77,66,59,64,60,57,95,82,55,30.19,30.10,2,0,7,0.00
2013-8-16,72,66,59,64,61,58,96,86,70,30.20,30.12,1,0,4,0.00
2013-8-17,73,68,64,72,66,62,98,95,91,30.20,30.13,1,0,5,0.27
2013-8-18,82,74,68,74,70,66,98,89,72,30.22,30.14,6,1,10,0.01
2013-8-19,75,70,67,72,68,66,98,95,88,30.22,30.12,3,0,4,0.63
2013-8-20,82,74,68,75,72,67,98,91,74,30.22,30.13,1,0,5,0.00
2013-8-21,86,76,71,78,73,70,98,92,73,30.25,30.13,7,0,16,0.01
2013-8-22,89,78,70,76,72,69,98,84,57,30.17,30.01,3,1,7,0.00
2013-8-23,87,77,70,76,72,68,98,84,63,30.08,29.94,4,1,11,0.00
2013-8-24,82,72,64,68,64,60,95,77,49,30.33,30.08,3,0,10,0.00
2013-8-25,79,69,61,66,62,58,97,80,51,30.42,30.31,2,0,10,0.01
2013-8-26,83,69,56,65,60,54,98,77,47,30.35,30.14,3,0,7,0.01
2013-8-27,87,75,64,75,68,59,92,80,58,30.15,29.98,2,0,7,0.00
2013-8-28,82,76,70,76,73,69,98,91,78,30.00,29.89,4,0,7,0.00
2013-8-29,86,79,71,76,74,69,94,84,70,30.03,29.85,3,1,8,0.00
2013-8-30,87,75,66,71,68,66,98,82,53,30.09,29.97,2,0,5,0.01
2013-8-31,88,77,68,74,70,67,98,82,60,30.01,29.89,7,2,13,0.01
2013-9-1,90,78,71,79,74,70,97,86,65,29.93,29.80,9,2,17,2.66
2013-9-2,88,77,70,78,73,70,98,89,63,29.91,29.81,4,1,8,0.00
2013-9-3,85,76,71,78,74,69,97,91,73,29.95,29.82,13,0,0,0.57
2013-9-4,84,75,69,75,70,68,98,87,68,30.11,29.96,2,0,0,0.00
2013-9-5,86,75,67,72,67,62,98,80,45,30.11,30.05,5,1,10,0.00
2013-9-6,82,72,64,69,64,58,93,77,50,30.19,30.09,3,0,8,0.00
2013-9-7,83,70,59,68,63,58,97,80,53,30.16,30.00,3,0,7,0.01
2013-9-8,86,73,64,72,65,62,95,79,50,30.01,29.93,3,0,7,0.00
2013-9-9,87,76,66,74,70,65,97,83,59,30.18,30.01,2,0,7,0.00
2013-9-10,89,76,67,73,70,66,98,82,53,30.26,30.17,4,1,8,0.00
2013-9-11,89,77,69,74,70,67,95,79,53,30.23,30.10,5,1,8,0.00
2013-9-12,78,74,70,72,70,68,94,88,81,30.05,29.82,6,1,7,0.00
2013-9-13,84,76,68,70,65,58,93,73,49,29.90,29.77,6,1,16,0.00
2013-9-14,76,67,58,61,55,49,89,66,44,30.17,29.90,5,1,11,0.00
2013-9-15,79,63,53,65,57,52,97,84,53,30.27,30.15,2,0,5,0.00
2013-9-16,85,72,64,74,66,61,97,81,46,30.21,30.06,5,1,9,0.05
2013-9-17,76,66,57,62,56,52,91,73,48,30.34,30.21,4,1,11,0.00
2013-9-18,72,59,50,57,53,49,96,82,52,30.33,30.21,2,0,11,0.00
2013-9-19,76,65,53,64,58,52,99,82,58,30.23,30.11,3,0,5,0.00
2013-9-20,71,67,62,67,64,60,97,90,84,30.13,30.00,5,0,7,0.45
2013-9-21,77,70,66,72,68,64,97,93,82,30.00,29.76,4,1,9,0.81
2013-9-22,77,68,59,68,63,57,98,85,58,29.92,29.73,5,1,13,1.38
2013-9-23,72,61,54,59,55,51,95,81,59,30.11,29.92,5,0,10,0.00
2013-9-24,74,62,52,62,56,51,97,84,60,30.13,29.99,3,0,8,0.00
2013-9-25,74,66,53,64,60,52,98,84,63,29.98,29.90,1,0,6,0.00
2013-9-26,77,65,59,62,59,54,96,82,46,30.06,29.90,3,0,7,0.00
2013-9-27,74,62,56,63,58,54,97,86,58,30.21,30.06,3,0,7,0.01
2013-9-28,73,62,54,61,56,52,97,83,62,30.28,30.19,3,0,9,0.01
2013-9-29,74,62,54,60,57,53,97,83,54,30.20,30.06,5,0,7,0.00
2013-9-30,75,63,55,62,57,54,98,84,51,30.13,30.02,3,0,6,0.00
2013-10-1,82,66,53,66,58,52,100,80,49,30.15,30.05,3,0,8,0.00
2013-10-4,86,76,68,68,66,64,88,73,51,30.12,30.07,3,0,7,0.00
2013-10-5,88,75,63,70,66,62,97,77,48,30.13,30.05,4,0,6,0.00
2013-10-6,83,72,65,73,68,63,98,88,68,30.09,29.97,5,1,8,0.00
2013-10-7,76,71,66,73,70,62,97,94,88,30.01,29.89,10,2,14,0.76
2013-10-8,65,60,58,62,53,49,90,78,68,30.22,29.99,4,1,8,0.00
2013-10-9,59,57,56,55,54,53,96,89,81,30.20,30.08,5,2,13,0.06
2013-10-10,59,57,54,58,56,54,97,96,95,30.08,29.95,5,2,13,0.59
2013-10-11,65,61,59,62,60,58,97,95,90,29.99,29.92,4,1,11,0.02
2013-10-12,69,64,61,66,63,60,97,94,89,30.10,29.97,2,0,6,0.00
2013-10-13,64,63,62,63,62,61,98,97,96,30.18,30.09,2,0,6,0.00
2013-10-15,70,64,54,64,60,53,100,88,77,30.20,30.09,3,0,11,0.01
2013-10-16,70,65,62,65,63,61,100,92,82,30.09,29.98,1,0,4,0.00
2013-10-17,76,68,61,67,64,60,98,88,73,30.00,29.86,6,1,10,0.00
2013-10-18,69,63,56,66,56,50,96,79,59,30.06,29.90,3,0,8,0.00
2013-10-19,69,64,61,66,62,57,97,93,89,30.01,29.85,3,0,6,0.02
2013-10-20,65,56,47,60,48,42,96,76,46,30.15,29.92,3,0,10,0.00
2013-10-21,67,54,41,53,47,40,97,80,48,30.20,30.04,3,0,6,0.01
2013-10-22,64,57,51,60,54,49,96,88,84,30.04,29.84,3,0,5,0.00
2013-10-23,67,59,48,59,50,37,98,75,41,30.02,29.71,13,4,17,0.00
2013-10-24,58,47,38,42,37,33,90,68,42,30.21,30.02,9,2,15,0.00
2013-10-25,56,46,38,38,34,29,88,66,38,30.39,30.21,8,1,15,0.00
2013-10-26,59,45,31,39,34,29,95,69,38,30.39,30.11,9,2,14,0.00
2013-10-27,68,54,44,48,42,38,87,66,42,30.16,30.08,4,0,8,0.00
2013-10-28,70,56,44,56,50,42,94,82,52,30.29,30.16,3,0,5,0.00
2013-10-29,73,60,52,59,55,51,97,84,57,30.36,30.27,2,0,5,0.00
2013-10-30,74,62,54,61,57,52,95,84,61,30.33,30.19,8,1,9,0.00
2013-10-31,76,66,57,64,59,56,96,80,57,30.23,29.97,8,2,13,0.00
2013-11-1,74,69,64,68,66,62,97,90,75,29.97,29.71,11,5,14,0.92
2013-11-2,70,62,57,62,54,43,97,75,44,29.95,29.71,11,3,13,0.00
2013-11-3,63,52,42,43,40,37,87,67,43,30.40,29.95,5,1,9,0.00
2013-11-4,56,45,38,39,35,32,86,71,43,30.59,30.40,3,0,10,0.00
2013-11-5,56,49,40,51,44,35,92,83,73,30.57,30.46,3,0,7,0.00
2013-11-6,70,58,47,59,53,46,97,84,58,30.46,30.15,1,0,6,0.00
2013-11-7,69,61,47,64,55,35,98,83,53,30.15,29.94,9,2,14,0.12
2013-11-8,57,46,37,36,32,29,83,60,35,30.35,30.12,7,2,11,0.00
2013-11-9,58,47,34,40,34,30,89,63,38,30.41,30.22,7,1,11,0.00
2013-11-10,71,56,44,43,39,36,78,55,29,30.23,30.08,11,3,18,0.00
2013-11-14,46,42,39,28,26,25,60,53,48,30.39,30.38,0,0,0,0.00
2013-11-15,63,55,36,50,44,26,92,66,48,30.40,30.25,4,0,5,0.01
2013-11-16,65,57,52,60,54,49,97,91,81,30.30,30.24,2,0,5,0.00
2013-11-17,72,62,54,66,59,54,98,90,70,30.26,29.93,6,1,9,0.10
2013-11-18,75,66,55,67,55,33,97,70,40,29.97,29.82,9,3,18,0.00
2013-11-19,56,49,41,33,31,29,74,50,37,30.35,29.97,6,2,12,0.00
2013-11-20,54,44,38,41,35,30,85,69,53,30.48,30.35,3,1,9,0.00
2013-11-21,62,50,42,51,45,38,92,82,65,30.54,30.42,3,0,8,0.00
2013-11-22,71,60,49,62,56,47,97,88,71,30.43,30.11,8,1,13,0.03
2013-11-23,62,55,42,61,44,24,97,68,41,30.19,30.05,6,1,9,0.03
2013-11-24,42,34,26,26,13,6,57,42,28,30.59,30.19,9,3,18,0.00
2013-11-25,43,32,19,19,13,10,84,49,26,30.64,30.42,3,0,7,0.00
2013-11-26,67,44,36,66,34,17,98,67,45,30.44,29.59,7,1,12,0.24
2013-11-27,67,43,31,66,40,21,97,89,65,30.18,29.52,12,5,22,1.16
2013-11-28,44,34,24,27,23,19,84,65,43,30.53,30.19,7,1,12,0.00
2013-11-29,50,37,27,30,27,25,93,69,41,30.68,30.51,4,0,8,0.00
2013-11-30,49,41,31,36,33,26,88,75,58,30.68,30.41,4,0,8,0.00
2013-12-1,60,43,30,41,35,28,96,75,35,30.40,30.06,4,0,7,0.00
2013-12-2,59,46,38,46,41,35,95,84,54,30.06,29.86,2,0,4,0.00
2013-12-3,58,47,35,48,42,33,96,82,64,30.04,29.90,6,1,10,0.00
2013-12-4,66,58,53,59,54,48,96,87,78,30.13,30.02,2,0,7,0.00
2013-12-5,67,60,54,63,58,53,98,95,87,30.18,30.08,7,2,11,0.01
2013-12-6,78,72,65,66,65,63,93,79,67,30.11,30.00,13,6,22,0.00
2013-12-7,68,49,42,65,45,33,96,86,70,30.49,30.02,7,2,12,0.21
2013-12-8,42,36,34,34,33,31,96,89,71,30.50,30.34,3,1,10,0.19
2013-12-9,46,40,35,46,40,34,98,97,96,30.34,30.10,4,0,5,0.27
2013-12-10,47,44,31,47,42,27,98,93,74,30.36,29.95,5,1,11,0.55
2013-12-11,49,38,27,31,28,24,94,68,39,30.49,30.33,4,1,6,0.00
2013-12-12,45,36,28,30,24,14,89,66,31,30.45,30.30,7,1,10,0.00
2013-12-13,51,37,26,32,25,21,88,63,34,30.44,30.31,6,1,11,0.00
2013-12-14,48,42,38,42,36,28,97,81,54,30.35,29.81,6,1,12,0.87
2013-12-15,53,44,35,44,38,31,98,82,56,30.10,29.73,10,3,18,0.02
2013-12-16,54,42,32,38,33,28,89,74,49,30.22,30.10,7,1,9,0.00
2013-12-17,60,48,35,42,38,33,92,71,47,30.16,29.91,11,2,17,0.00
2013-12-18,48,40,32,39,28,22,85,64,37,30.33,30.06,9,2,16,0.00
2013-12-19,61,47,33,33,29,23,69,51,30,30.37,30.26,9,2,13,0.00
2013-12-20,66,54,44,56,47,33,92,77,58,30.28,30.15,8,2,11,0.00
2013-12-21,72,62,51,66,57,49,96,86,70,30.19,30.08,10,3,14,0.00
2013-12-22,77,70,64,68,66,62,94,85,69,30.15,30.06,13,6,24,0.08
2013-12-23,68,61,47,68,60,45,98,95,90,30.17,30.02,9,2,14,1.86
2013-12-24,47,41,30,45,32,18,95,71,53,30.49,30.14,8,2,15,0.02
2013-12-25,38,30,24,23,18,13,83,61,39,30.59,30.44,2,0,6,0.00
2013-12-26,52,37,26,37,31,22,92,80,49,30.44,30.29,3,0,8,0.04
2013-12-27,52,40,32,32,27,23,83,60,34,30.50,30.40,3,0,6,0.00
2013-12-28,59,42,29,41,32,26,91,70,36,30.44,30.19,3,0,5,0.00
2013-12-29,65,51,45,64,49,39,98,92,72,30.20,29.69,14,3,24,1.45
2013-12-30,54,46,38,46,42,37,98,86,66,30.17,29.95,4,0,8,0.01
2013-12-31,50,42,34,38,33,26,92,70,39,30.39,30.15,10,2,12,0.00
2014-1-1,51,40,31,37,30,26,90,70,39,30.47,30.19,5,0,8,0.00
2014-1-2,48,44,39,46,40,33,97,86,68,30.19,29.60,11,1,18,0.33